TimePDT,TemperatureF,Dew PointF,Humidity,Sea Level PressureIn,VisibilityMPH,Wind Direction,Wind SpeedMPH,Gust SpeedMPH,PrecipitationIn,Events,Conditions,WindDirDegrees,DateUTC
12:15 AM,62.6,57.2,82,30.06,10.0,NW,3.5,-,N/A,,Overcast,320,2013-09-05 07:15:00
12:35 AM,62.6,57.2,82,30.05,10.0,Calm,Calm,-,N/A,,Overcast,0,2013-09-05 07:35:00
12:55 AM,62.6,57.2,82,30.06,10.0,Calm,Calm,-,N/A,Thunderstorm,Overcast,0,2013-09-05 07:55:00
1:15 AM,62.6,57.2,82,30.05,10.0,NNW,4.6,-,N/A,,Overcast,340,2013-09-05 08:15:00
1:35 AM,62.6,57.2,82,30.09,10.0,SSW,4.6,-,N/A,Thunderstorm,Overcast,200,2013-09-05 08:35:00
1:55 AM,62.6,46.4,55,30.06,10.0,North,4.6,-,N/A,Thunderstorm,Overcast,360,2013-09-05 08:55:00
2:15 AM,62.6,37.4,39,30.07,10.0,Calm,Calm,-,0.03,,Overcast,0,2013-09-05 09:15:00
2:35 AM,62.6,37.4,39,30.04,10.0,North,3.5,-,0.04,,Overcast,10,2013-09-05 09:35:00
2:55 AM,62.6,37.4,39,30.03,10.0,NNE,5.8,-,0.04,,Overcast,20,2013-09-05 09:55:00
3:15 AM,60.8,37.4,42,30.01,9.0,WNW,4.6,-,0.01,,Mostly Cloudy,300,2013-09-05 10:15:00
3:35 AM,60.8,37.4,42,30.03,10.0,Calm,Calm,-,0.01,,Mostly Cloudy,0,2013-09-05 10:35:00
3:55 AM,60.8,37.4,42,30.03,10.0,Calm,Calm,-,0.01,,Overcast,0,2013-09-05 10:55:00
4:15 AM,60.8,37.4,42,30.04,10.0,WNW,3.5,-,N/A,,Overcast,300,2013-09-05 11:15:00
4:35 AM,62.6,37.4,39,30.03,10.0,NNW,4.6,-,N/A,,Overcast,330,2013-09-05 11:35:00
4:55 AM,62.6,37.4,39,30.03,10.0,NNW,3.5,-,N/A,,Overcast,330,2013-09-05 11:55:00
5:15 AM,62.6,37.4,39,30.04,10.0,NNE,5.8,-,N/A,,Overcast,30,2013-09-05 12:15:00
5:35 AM,62.6,37.4,39,30.05,10.0,Calm,Calm,-,N/A,,Overcast,0,2013-09-05 12:35:00
5:55 AM,62.6,37.4,39,30.03,10.0,Calm,Calm,-,N/A,,Overcast,0,2013-09-05 12:55:00
6:15 AM,60.8,37.4,42,30.03,10.0,Calm,Calm,-,N/A,,Overcast,0,2013-09-05 13:15:00
6:35 AM,60.8,37.4,42,30.03,10.0,NNW,3.5,-,N/A,,Overcast,340,2013-09-05 13:35:00
6:55 AM,60.8,57.2,88,30.03,10.0,Calm,Calm,-,N/A,,Overcast,0,2013-09-05 13:55:00
7:15 AM,62.6,57.2,82,30.04,10.0,Calm,Calm,-,N/A,,Overcast,0,2013-09-05 14:15:00
7:35 AM,62.6,57.2,82,30.04,10.0,North,6.9,-,N/A,,Overcast,360,2013-09-05 14:35:00
7:55 AM,62.6,57.2,82,30.04,10.0,NNW,3.5,-,N/A,,Overcast,330,2013-09-05 14:55:00
8:15 AM,62.6,57.2,82,30.04,10.0,Calm,Calm,-,N/A,,Overcast,0,2013-09-05 15:15:00
8:35 AM,62.6,57.2,82,30.04,10.0,Calm,Calm,-,N/A,,Overcast,0,2013-09-05 15:35:00
8:55 AM,62.6,57.2,82,30.04,10.0,WNW,3.5,-,N/A,,Overcast,300,2013-09-05 15:55:00
9:15 AM,62.6,57.2,82,30.05,10.0,Calm,Calm,-,N/A,,Overcast,0,2013-09-05 16:15:00
9:35 AM,62.6,57.2,82,30.05,10.0,NNW,4.6,-,N/A,,Overcast,340,2013-09-05 16:35:00
9:55 AM,64.4,57.2,77,30.04,10.0,North,6.9,-,N/A,,Overcast,350,2013-09-05 16:55:00
10:15 AM,64.4,57.2,77,30.04,10.0,NNW,6.9,-,N/A,,Overcast,330,2013-09-05 17:15:00
10:35 AM,64.4,57.2,77,30.04,10.0,NNW,6.9,-,N/A,,Overcast,340,2013-09-05 17:35:00
10:55 AM,66.2,59.0,78,30.04,10.0,NW,3.5,-,N/A,,Overcast,320,2013-09-05 17:55:00
11:15 AM,66.2,57.2,73,30.04,10.0,NNW,4.6,-,N/A,,Overcast,340,2013-09-05 18:15:00
11:35 AM,66.2,57.2,73,30.05,10.0,North,6.9,-,N/A,,Overcast,10,2013-09-05 18:35:00
11:55 AM,66.2,59.0,78,30.04,10.0,NNW,5.8,-,N/A,,Overcast,340,2013-09-05 18:55:00
12:15 PM,68.0,59.0,73,30.04,10.0,NW,6.9,-,N/A,,Overcast,320,2013-09-05 19:15:00
12:35 PM,68.0,57.2,68,30.04,10.0,NNW,6.9,-,N/A,,Overcast,340,2013-09-05 19:35:00
12:55 PM,68.0,57.2,68,30.03,10.0,NNW,4.6,-,N/A,,Overcast,340,2013-09-05 19:55:00
1:15 PM,68.0,57.2,68,30.03,10.0,North,8.1,-,N/A,,Overcast,360,2013-09-05 20:15:00
1:35 PM,68.0,57.2,68,30.03,10.0,North,9.2,-,N/A,,Overcast,360,2013-09-05 20:35:00
1:55 PM,69.8,57.2,64,30.02,10.0,North,10.4,-,N/A,,Overcast,360,2013-09-05 20:55:00
2:15 PM,68.0,57.2,68,30.02,10.0,NW,6.9,-,N/A,,Overcast,310,2013-09-05 21:15:00
2:35 PM,68.0,57.2,68,30.02,10.0,NW,6.9,-,N/A,,Overcast,320,2013-09-05 21:35:00
2:55 PM,68.0,57.2,68,30.02,10.0,NNW,8.1,-,N/A,,Overcast,340,2013-09-05 21:55:00
3:15 PM,68.0,57.2,68,30.01,10.0,North,9.2,-,N/A,,Overcast,10,2013-09-05 22:15:00
3:35 PM,69.8,57.2,64,30.01,10.0,North,6.9,-,N/A,,Overcast,350,2013-09-05 22:35:00
3:55 PM,69.8,57.2,64,30.00,10.0,North,12.7,18.4,N/A,,Overcast,360,2013-09-05 22:55:00
4:15 PM,69.8,57.2,64,29.99,10.0,North,9.2,16.1,N/A,,Overcast,360,2013-09-05 23:15:00
4:35 PM,69.8,57.2,64,29.98,10.0,North,11.5,-,N/A,,Overcast,360,2013-09-05 23:35:00
4:55 PM,69.8,57.2,64,29.98,10.0,NNW,11.5,-,N/A,,Overcast,340,2013-09-05 23:55:00
5:15 PM,69.8,57.2,64,30.00,10.0,NNW,8.1,-,N/A,,Overcast,340,2013-09-06 00:15:00
5:35 PM,69.8,57.2,64,30.00,10.0,NW,3.5,-,N/A,,Overcast,310,2013-09-06 00:35:00
5:55 PM,68.0,57.2,68,30.00,10.0,NW,5.8,-,N/A,,Overcast,310,2013-09-06 00:55:00
6:15 PM,66.2,59.0,78,30.00,10.0,Calm,Calm,-,N/A,Thunderstorm,Thunderstorm,0,2013-09-06 01:15:00
6:35 PM,66.2,59.0,78,29.99,10.0,Calm,Calm,-,N/A,Thunderstorm,Overcast,0,2013-09-06 01:35:00
6:55 PM,66.2,60.8,83,30.00,10.0,Calm,Calm,-,N/A,Thunderstorm,Overcast,0,2013-09-06 01:55:00
7:15 PM,66.2,60.8,83,30.01,10.0,Calm,Calm,-,N/A,Thunderstorm,Overcast,0,2013-09-06 02:15:00
7:35 PM,64.4,60.8,88,30.01,4.0,North,4.6,-,0.05,,Overcast,350,2013-09-06 02:35:00
7:55 PM,64.4,60.8,88,30.02,5.0,Calm,Calm,-,0.07,,Mostly Cloudy,0,2013-09-06 02:55:00
8:15 PM,62.6,60.8,94,30.03,5.0,Calm,Calm,-,0.04,,Overcast,0,2013-09-06 03:15:00
8:35 PM,62.6,59.0,88,30.03,9.0,NNW,4.6,-,0.08,Thunderstorm,Overcast,330,2013-09-06 03:35:00
8:55 PM,62.6,57.2,82,30.05,10.0,NNW,3.5,-,0.09,,Overcast,330,2013-09-06 03:55:00
9:15 PM,62.6,57.2,82,30.05,10.0,NNW,5.8,-,0.03,,Overcast,340,2013-09-06 04:15:00
9:35 PM,62.6,57.2,82,30.06,5.0,Calm,Calm,-,0.08,,Overcast,0,2013-09-06 04:35:00
9:55 PM,62.6,57.2,82,30.06,3.0,Calm,Calm,-,0.17,,Overcast,0,2013-09-06 04:55:00
10:15 PM,62.6,57.2,82,30.06,3.0,SE,4.6,-,0.12,,Overcast,140,2013-09-06 05:15:00
10:35 PM,60.8,57.2,88,30.05,10.0,SSE,5.8,-,0.18,,Overcast,150,2013-09-06 05:35:00
10:55 PM,60.8,57.2,88,30.05,10.0,SSE,4.6,-,0.21,,Overcast,150,2013-09-06 05:55:00
11:15 PM,60.8,57.2,88,30.05,10.0,SSE,4.6,-,0.01,,Overcast,160,2013-09-06 06:15:00
11:35 PM,60.8,57.2,88,30.05,9.0,SE,4.6,-,0.04,,Overcast,130,2013-09-06 06:35:00
11:55 PM,60.8,57.2,88,30.05,10.0,SSE,6.9,-,0.07,,Overcast,150,2013-09-06 06:55:00